User: anonymous   Login
Location: Larrial
(48.2758°N, 4.5331°W)
Time: 22:05:40
(UTC+00:00)
Language:

TIGRISAT - Orbit

View from above orbital plane
View from above orbital plane
View from above satellite
View from above satellite

Ground track
Ground track

The orbit data is extracted from the following two-line orbital elements,

1 40043U 14033AK  21339.45637068  .00000305  00000-0  51576-4 0  9995
2 40043  97.6585 174.1753 0060934  65.3232 295.4306 14.74648251401336
Epoch (UTC): 05 December 2021 10:57:10
Eccentricity: 0.0060934
inclination: 97.6585°
perigee height: 603 km
apogee height: 689 km
right ascension of ascending node: 174.1753°
argument of perigee: 65.3232°
revolutions per day: 14.74648251
mean anomaly at epoch: 295.4306°
orbit number at epoch: 40133

The dashed part of the orbit path shows where the satellite is in the earth's shadow,  

DLR